Weather History for Port Angeles, WA

Change the Weather History Date:

Sunday, December 15, 2013

  Actual Average Record
Temperature  
Mean Temperature 44 °F -  
Max Temperature 51 °F 46 °F 58 °F (1956)
Min Temperature 37 °F 36 °F 19 °F (2008)
Degree Days  
Heating Degree Days 21    
Moisture  
Dew Point 42 °F    
Average Humidity 90    
Maximum Humidity 100    
Minimum Humidity 77    
Precipitation  
Precipitation 0.00 in - - ()
Sea Level Pressure  
Sea Level Pressure 30.35 in    
Wind  
Wind Speed 4 mph (West)    
Max Wind Speed 12 mph    
Max Gust Speed -    
Visibility 8 miles    
Events Fog    
Averages and records for this station are not official NWS values.
T = Trace of Precipitation, MM = Missing Value Source: NWS Daily Summary

Daily Weather History Graph

Daily Weather History Graph

Search for Another Location

Airport:

Trip Planner

Search our weather history database for the weather conditions in past years. The results will help you decide how hot, cold, wet, or windy it might be!

Date:

Astronomy

Dec. 15, 2013 Rise Set
Actual Time 7:57 AM PST 4:20 PM PST
Civil Twilight 7:21 AM PST 4:57 PM PST
Nautical Twilight 6:41 AM PST 5:36 PM PST
Astronomical Twilight 6:03 AM PST 6:14 PM PST
Moon 3:34 PM PST (12/15) 6:13 AM PST (12/15)
Length of Visible Light 9h 35m
Length of Day
8h 22m
Waxing Gibbous, 98% of the Moon is Illuminated
Dec 15
Waxing Gibbous
Dec 17
Full
Dec 25
Last Quarter
Jan 1
New
Jan 7
First Quarter

Hourly Weather History & Observations

Time (PST) Temp. Windchill Dew Point Humidity Pressure Visibility Wind Dir Wind Speed Gust Speed Precip Events Conditions
12:00 AM 43.0 °F - 42.1 °F 97% 30.30 in 0.5 mi Calm Calm - N/A Fog Fog
12:09 AM 43.0 °F 40.3 °F 41.0 °F 93% 30.30 in 0.2 mi SW 4.6 mph - N/A Fog Fog
12:39 AM 43.0 °F 39.5 °F 42.1 °F 97% 30.30 in 0.5 mi West 5.8 mph - N/A Fog Fog
12:51 AM 42.8 °F 40.1 °F 42.8 °F 100% 30.30 in 1.5 mi WSW 4.6 mph - N/A   Overcast
12:53 AM 43.0 °F 39.5 °F 42.1 °F 97% 30.31 in 1.8 mi WSW 5.8 mph - N/A   Overcast
12:59 AM 43.0 °F 40.3 °F 42.1 °F 97% 30.30 in 3.0 mi West 4.6 mph - N/A   Overcast
1:53 AM 44.1 °F 41.5 °F 43.0 °F 96% 30.32 in 10.0 mi SW 4.6 mph - N/A   Overcast
2:49 AM 44.6 °F 42.2 °F 42.8 °F 93% 30.32 in 8.0 mi SW 4.6 mph - N/A   Overcast
2:53 AM 44.1 °F 42.5 °F 42.1 °F 93% 30.32 in 9.0 mi SW 3.5 mph - N/A   Overcast
3:53 AM 41.0 °F - 39.9 °F 96% 30.32 in 7.0 mi North - - N/A   Mostly Cloudy
4:53 AM 42.1 °F - 41.0 °F 96% 30.31 in 10.0 mi Calm Calm - N/A   Overcast
5:33 AM 39.9 °F - 39.0 °F 97% 30.29 in 1.5 mi Calm Calm - N/A   Mostly Cloudy
5:46 AM 39.9 °F 36.7 °F 39.0 °F 97% 30.30 in 4.0 mi SSW 4.6 mph - N/A   Mostly Cloudy
5:53 AM 39.0 °F 36.8 °F 37.9 °F 96% 30.31 in 10.0 mi SSW 3.5 mph - N/A   Mostly Cloudy
6:53 AM 39.0 °F 36.8 °F 37.9 °F 96% 30.31 in 10.0 mi South 3.5 mph - N/A   Overcast
7:53 AM 37.0 °F - 35.1 °F 93% 30.31 in 10.0 mi Calm Calm - N/A   Mostly Cloudy
8:53 AM 41.0 °F - 39.0 °F 93% 30.32 in 10.0 mi Calm Calm - N/A   Overcast
9:53 AM 46.0 °F - 42.1 °F 86% 30.34 in 10.0 mi Calm Calm - N/A   Partly Cloudy
10:53 AM 50.0 °F - 44.1 °F 80% 30.36 in 10.0 mi Calm Calm - N/A   Mostly Cloudy
11:12 AM 48.9 °F - 45.0 °F 86% 30.36 in 10.0 mi WNW 4.6 mph - N/A   Overcast
11:53 AM 50.0 °F - 46.0 °F 86% 30.36 in 10.0 mi Calm Calm - N/A   Overcast
12:15 PM 50.0 °F - 45.0 °F 83% 30.34 in 10.0 mi WNW 6.9 mph - N/A   Scattered Clouds
12:53 PM 51.1 °F - 45.0 °F 80% 30.35 in 10.0 mi Calm Calm - N/A   Partly Cloudy
1:53 PM 51.1 °F - 44.1 °F 77% 30.35 in 10.0 mi Variable 4.6 mph - N/A   Scattered Clouds
2:10 PM 51.1 °F - 45.0 °F 80% 30.35 in 10.0 mi NW 10.4 mph - N/A   Mostly Cloudy
2:33 PM 48.0 °F - 45.0 °F 89% 30.35 in 10.0 mi NW 10.4 mph - N/A   Overcast
2:53 PM 48.0 °F - 45.0 °F 89% 30.36 in 10.0 mi NW 11.5 mph - N/A   Mostly Cloudy
3:07 PM 48.0 °F - 45.0 °F 89% 30.36 in 10.0 mi NW 8.1 mph - N/A   Mostly Cloudy
3:43 PM 46.9 °F - 45.0 °F 93% 30.38 in 10.0 mi WNW 11.5 mph - N/A   Mostly Cloudy
3:53 PM 46.9 °F - 45.0 °F 93% 30.39 in 10.0 mi NNW 4.6 mph - N/A   Overcast
4:04 PM 48.0 °F - 44.1 °F 86% 30.38 in 10.0 mi NW 6.9 mph - N/A   Mostly Cloudy
4:35 PM 46.9 °F - 43.0 °F 86% 30.38 in 10.0 mi West 9.2 mph - N/A   Mostly Cloudy
4:53 PM 46.9 °F - 43.0 °F 86% 30.39 in 10.0 mi West 8.1 mph - N/A   Partly Cloudy
5:53 PM 46.0 °F 41.9 °F 42.1 °F 86% 30.40 in 10.0 mi West 8.1 mph - N/A   Overcast
6:53 PM 46.0 °F 41.9 °F 41.0 °F 83% 30.41 in 10.0 mi West 8.1 mph - N/A   Clear
7:53 PM 45.0 °F 40.6 °F 39.0 °F 80% 30.41 in 10.0 mi West 8.1 mph - N/A   Clear
8:53 PM 42.1 °F 39.2 °F 37.0 °F 82% 30.43 in 10.0 mi West 4.6 mph - N/A   Clear
9:53 PM 39.9 °F 35.1 °F 36.0 °F 86% 30.45 in 10.0 mi WNW 6.9 mph - N/A   Clear
10:53 PM 39.9 °F 35.1 °F 36.0 °F 86% 30.45 in 10.0 mi WNW 6.9 mph - N/A   Clear
11:53 PM 41.0 °F 34.3 °F 36.0 °F 82% 30.45 in 10.0 mi West 11.5 mph - N/A   Clear